KK7RJD Weather Reports


time (UTC)temp
F
wind
direction
speed
knots
gust
knots
rain 1hr
in
rain 24hr
in
rain mn
in
humidity
%
barometer
mb
20260504130343 46 327 16.5 20.0 0.00 0.00 0.00 51 1012.0
20260504120306 47 351 11.3 14.8 0.00 0.00 0.00 49 1011.3
20260504110230 49 10 7.0 8.7 0.00 0.00 0.00 46 1010.2
20260504100154 48 235 0.9 0.9 0.00 0.00 0.00 48 1008.6
20260504090116 51 237 0.9 0.9 0.00 0.00 0.00 43 1008.4
20260504081546 54 259 0.9 0.9 0.00 0.00 0.00 38 1008.6
20260504081042 54 221 0.9 0.9 0.00 0.00 0.00 38 1008.6
20260504080539 53 226 0.9 1.7 0.00 0.00 0.00 38 1008.6
20260504050352 51 225 0.0 0.0 0.00 0.00 0.00 42 1008.8
20260504045849 51 189 0.0 0.0 0.00 0.00 0.00 42 1008.8
20260504045344 51 184 0.0 0.0 0.00 0.00 0.00 42 1008.6
20260504044841 52 185 0.0 0.0 0.00 0.00 0.00 41 1008.7
20260504044338 53 194 0.0 0.0 0.00 0.00 0.00 42 1008.8
20260504043836 53 221 0.0 0.0 0.00 0.00 0.00 41 1008.8
20260504043332 54 198 0.0 0.0 0.00 0.00 0.00 40 1008.7
20260504042830 53 264 0.9 0.9 0.00 0.00 0.00 38 1008.8
20260504042326 54 216 0.0 0.9 0.00 0.00 0.00 40 1008.8
20260504041822 55 211 0.0 0.0 0.00 0.00 0.00 37 1008.9
20260504041319 57 214 0.0 0.0 0.00 0.00 0.00 34 1008.8
20260504040815 57 235 0.0 0.9 0.00 0.00 0.00 30 1008.9
20260504040313 57 232 0.0 0.9 0.00 0.00 0.00 30 1008.8
20260504035808 56 223 0.0 0.9 0.00 0.00 0.00 31 1008.9
20260504035306 56 211 0.0 0.0 0.00 0.00 0.00 32 1008.9
20260504034803 58 237 0.9 0.9 0.00 0.00 0.00 34 1008.8
20260504034301 59 228 0.0 0.0 0.00 0.00 0.00 32 1008.9
20260504033758 60 297 0.9 0.9 0.00 0.00 0.00 29 1008.6
20260504033255 60 323 1.7 1.7 0.00 0.00 0.00 29 1008.5
20260504032752 60 327 1.7 2.6 0.00 0.00 0.00 30 1008.7
20260504032249 60 339 1.7 1.7 0.00 0.00 0.00 31 1008.8
20260504031745 60 333 2.6 2.6 0.00 0.00 0.00 31 1008.6
20260504031243 61 348 2.6 2.6 0.00 0.00 0.00 31 1008.6
20260504030738 61 352 3.5 3.5 0.00 0.00 0.00 32 1008.7
20260504030236 62 357 3.5 3.5 0.00 0.00 0.00 31 1008.4
20260504025733 63 345 3.5 5.2 0.00 0.00 0.00 32 1008.6
20260504025229 64 332 3.5 3.5 0.00 0.00 0.00 28 1008.3
20260504024727 65 355 2.6 2.6 0.00 0.00 0.00 27 1008.4
20260504024223 65 27 1.7 2.6 0.00 0.00 0.00 27 1008.3
20260504023720 65 10 3.5 3.5 0.00 0.00 0.00 28 1008.6
20260504023216 65 4 3.5 3.5 0.00 0.00 0.00 31 1008.4
20260504022712 66 0 1.7 2.6 0.00 0.00 0.00 32 1008.2
20260504022208 66 358 1.7 1.7 0.00 0.00 0.00 29 1008.0
20260504021706 66 4 2.6 2.6 0.00 0.00 0.00 28 1008.2
20260504021203 65 18 2.6 2.6 0.00 0.00 0.00 28 1008.2
20260504020700 65 357 2.6 2.6 0.00 0.00 0.00 33 1008.2
20260504020155 66 335 2.6 2.6 0.00 0.00 0.00 32 1008.0
20260504015652 66 309 0.9 0.9 0.00 0.00 0.00 28 1008.3
20260504015149 67 257 0.0 0.9 0.00 0.00 0.00 27 1008.2
20260504014644 67 286 0.9 0.9 0.00 0.00 0.00 26 1008.4
20260504014142 68 246 0.9 0.9 0.00 0.00 0.00 26 1008.3
20260504013639 69 273 0.9 0.9 0.00 0.00 0.00 25 1008.2
20260504013136 69 296 0.9 1.7 0.00 0.00 0.00 24 1008.3
20260504012633 69 310 1.7 1.7 0.00 0.00 0.00 24 1008.3
20260504012131 70 303 1.7 2.6 0.00 0.00 0.00 24 1008.3
20260504011628 71 7 4.3 6.1 0.00 0.00 0.00 24 1008.3
20260504011124 71 304 1.7 2.6 0.00 0.00 0.00 26 1008.5
20260504010620 71 301 1.7 1.7 0.00 0.00 0.00 25 1008.7
20260504010116 71 314 1.7 1.7 0.00 0.00 0.00 23 1008.4
20260504005613 72 5 3.5 3.5 0.00 0.00 0.00 23 1008.5
20260504005110 71 318 3.5 3.5 0.00 0.00 0.00 24 1008.6
20260504004608 71 315 3.5 3.5 0.00 0.00 0.00 26 1008.6
20260504004105 71 338 2.6 3.5 0.00 0.00 0.00 26 1008.7
20260504003601 72 331 6.1 7.0 0.00 0.00 0.00 25 1008.7
20260504003058 72 343 6.1 7.0 0.00 0.00 0.00 26 1008.7
20260504002555 72 336 5.2 6.1 0.00 0.00 0.00 24 1008.8
20260504002053 73 337 4.3 6.1 0.00 0.00 0.00 25 1008.9
20260504001550 73 344 5.2 6.1 0.00 0.00 0.00 27 1008.8
20260504001046 73 0 6.1 7.0 0.00 0.00 0.00 24 1009.1
20260504000543 73 307 2.6 2.6 0.00 0.00 0.00 21 1008.8
20260504000041 73 11 1.7 2.6 0.00 0.00 0.00 22 1009.1
20260503235539 73 2 6.1 7.0 0.00 0.00 0.00 23 1009.1
20260503235035 74 29 5.2 6.1 0.00 0.00 0.00 21 1009.2
20260503234533 74 295 4.3 5.2 0.00 0.00 0.00 23 1009.1
20260503234031 74 326 6.1 7.0 0.00 0.00 0.00 23 1009.2
20260503233527 74 282 3.5 5.2 0.00 0.00 0.00 22 1009.3
20260503233023 73 272 0.9 0.9 0.00 0.00 0.00 25 1009.3
20260503232520 73 0 5.2 6.1 0.00 0.00 0.00 22 1009.5
20260503232018 73 355 9.6 11.3 0.00 0.00 0.00 24 1009.4
20260503231516 73 349 7.0 7.8 0.00 0.00 0.00 24 1009.4
20260503231012 74 298 2.6 2.6 0.00 0.00 0.00 25 1009.7
20260503230509 73 279 2.6 2.6 0.00 0.00 0.00 22 1009.5
20260503230006 74 352 12.2 13.9 0.00 0.00 0.00 25 1009.7
20260503225503 73 317 1.7 2.6 0.00 0.00 0.00 24 1009.7
20260503224958 73 6 2.6 3.5 0.00 0.00 0.00 22 1009.6
20260503224455 73 333 3.5 3.5 0.00 0.00 0.00 24 1009.5
20260503223953 73 357 7.0 8.7 0.00 0.00 0.00 25 1010.0
20260503223451 73 43 4.3 5.2 0.00 0.00 0.00 24 1009.9
20260503222946 73 342 7.0 7.0 0.00 0.00 0.00 23 1009.9
20260503222445 74 345 3.5 3.5 0.00 0.00 0.00 24 1010.1
20260503221943 74 355 4.3 5.2 0.00 0.00 0.00 24 1010.2
20260503221441 74 295 1.7 2.6 0.00 0.00 0.00 23 1010.0
20260503220937 74 264 3.5 3.5 0.00 0.00 0.00 24 1010.2
20260503220434 73 336 4.3 6.1 0.00 0.00 0.00 26 1010.4
20260503215931 73 196 2.6 2.6 0.00 0.00 0.00 24 1010.4
20260503215428 73 260 1.7 2.6 0.00 0.00 0.00 26 1010.5
20260503214925 73 325 5.2 6.1 0.00 0.00 0.00 26 1010.7
20260503214422 73 347 4.3 5.2 0.00 0.00 0.00 24 1010.5
20260503213920 73 176 0.0 0.9 0.00 0.00 0.00 24 1010.7
20260503213418 73 29 1.7 1.7 0.00 0.00 0.00 27 1010.8
20260503212914 73 27 1.7 2.6 0.00 0.00 0.00 24 1011.1
20260503212412 72 2 2.6 2.6 0.00 0.00 0.00 25 1011.2
20260503211909 73 25 6.1 7.0 0.00 0.00 0.00 27 1011.2
20260503211406 73 353 7.0 7.8 0.00 0.00 0.00 25 1011.5
20260503210901 73 238 0.9 0.9 0.00 0.00 0.00 26 1011.2
20260503210359 72 5 3.5 3.5 0.00 0.00 0.00 26 1011.5
20260503205859 72 46 4.3 7.8 0.00 0.00 0.00 26 1011.7
20260503205356 72 11 3.5 3.5 0.00 0.00 0.00 27 1011.6
20260503204852 73 31 2.6 3.5 0.00 0.00 0.00 26 1011.9
20260503204349 72 309 3.5 3.5 0.00 0.00 0.00 25 1011.9
20260503203847 70 280 1.7 1.7 0.00 0.00 0.00 27 1011.9
20260503203344 72 310 7.0 7.8 0.00 0.00 0.00 26 1012.0
20260503202841 71 55 0.9 0.9 0.00 0.00 0.00 25 1011.9
20260503202339 71 341 5.2 5.2 0.00 0.00 0.00 25 1011.9
20260503201837 71 53 2.6 2.6 0.00 0.00 0.00 26 1012.1
20260503201334 71 28 3.5 3.5 0.00 0.00 0.00 27 1012.3
20260503200832 71 145 5.2 7.0 0.00 0.00 0.00 26 1012.1
20260503200327 71 175 2.6 5.2 0.00 0.00 0.00 28 1012.3
20260503195825 71 166 5.2 6.1 0.00 0.00 0.00 27 1012.3
20260503195321 70 53 1.7 2.6 0.00 0.00 0.00 29 1012.4
20260503194819 70 6 2.6 2.6 0.00 0.00 0.00 28 1012.6
20260503194314 71 50 3.5 6.1 0.00 0.00 0.00 27 1012.6
20260503193810 70 191 0.9 0.9 0.00 0.00 0.00 29 1012.8
20260503193307 69 285 3.5 3.5 0.00 0.00 0.00 30 1012.6
20260503192803 69 47 3.5 3.5 0.00 0.00 0.00 28 1012.9
20260503192258 69 209 0.9 1.7 0.00 0.00 0.00 30 1013.0
20260503191755 70 59 7.0 7.8 0.00 0.00 0.00 29 1013.2
20260503191252 70 55 5.2 7.8 0.00 0.00 0.00 29 1013.2
20260503190748 71 47 3.5 6.1 0.00 0.00 0.00 29 1013.2
20260503190245 69 23 0.9 1.7 0.00 0.00 0.00 32 1012.9
20260503185743 70 329 5.2 6.1 0.00 0.00 0.00 33 1013.0
20260503185238 69 334 5.2 6.1 0.00 0.00 0.00 31 1013.2
20260503184733 68 301 0.9 1.7 0.00 0.00 0.00 29 1013.5
20260503184230 69 11 3.5 5.2 0.00 0.00 0.00 28 1013.6
20260503183726 69 6 6.1 7.0 0.00 0.00 0.00 30 1013.5
20260503183223 68 132 0.9 0.9 0.00 0.00 0.00 30 1013.7
20260503182721 68 338 1.7 2.6 0.00 0.00 0.00 31 1013.6
20260503182220 67 147 1.7 1.7 0.00 0.00 0.00 32 1013.8
20260503181715 67 41 5.2 7.0 0.00 0.00 0.00 33 1014.0
20260503181213 67 20 1.7 2.6 0.00 0.00 0.00 33 1013.8
20260503180709 67 350 1.7 2.6 0.00 0.00 0.00 32 1014.1
20260503180208 67 42 5.2 7.0 0.00 0.00 0.00 32 1014.4
20260503175704 66 17 1.7 2.6 0.00 0.00 0.00 33 1014.2
20260503175202 66 63 3.5 3.5 0.00 0.00 0.00 31 1014.3
20260503174657 68 345 6.1 8.7 0.00 0.00 0.00 32 1014.3
20260503174155 67 43 2.6 2.6 0.00 0.00 0.00 30 1014.4
20260503173651 67 39 1.7 2.6 0.00 0.00 0.00 31 1014.4
20260503173147 66 169 0.0 0.0 0.00 0.00 0.00 34 1014.6
20260503172644 67 146 1.7 2.6 0.00 0.00 0.00 34 1014.6
20260503172141 66 48 1.7 2.6 0.00 0.00 0.00 35 1014.6
20260503171637 65 250 1.7 1.7 0.00 0.00 0.00 34 1014.8
20260503171135 65 58 2.6 2.6 0.00 0.00 0.00 34 1014.9
20260503170632 64 159 0.9 0.9 0.00 0.00 0.00 36 1014.8
20260503170128 64 15 3.5 3.5 0.00 0.00 0.00 36 1014.9
20260503150520 54 208 0.9 0.9 0.00 0.00 0.00 52 1015.9